CAPE
2572 2877 3011 2879 2874 2866 2799 2609 2533 2407 2183 2145 1917 1827 1836 1815 1743 1808 1876 1923 1881 1811 1735 1791 1706 1613 1583 1512 1360 1244 1160 1157 995 759 640 557 495 412 397 427 394 356 188 92 119 155 222 281 538 595 602 668 750 890 1052 1112 1069 891 1111 1472 1502 1181 904 1082 1054 1023 995 947 966 1190 1187 1271 1099 1297 1313 1394 1516 1464 1428 1446 1398 1293 1134 1318 1601
2588 2982 2918 2816 2821 2818 2750 2492 2423 2089 2152 2169 1925 1907 1880 1772 1748 1724 1783 1791 1868 1794 1750 1810 1802 1641 1474 1320 1251 1182 1217 1183 994 796 666 650 586 463 452 403 359 383 381 381 350 310 202 285 498 492 684 756 706 818 1051 1149 1106 790 841 1276 1094 1197 1178 1234 1128 1058 857 795 904 897 957 976 1104 1228 1312 1292 1330 1256 1256 1254 1214 1057 1084 1149 1182
2683 2902 2915 2843 2924 2852 2721 2516 2454 2459 2128 2078 2031 1851 1875 1831 1761 1737 1634 1681 1860 1746 1702 1732 1724 1609 1490 1379 1292 1324 1320 1185 980 822 725 635 611 498 468 456 495 474 525 410 281 358 298 322 474 550 510 437 721 852 888 1041 1126 1291 1211 1119 1122 1209 1128 1032 892 973 1062 1157 1094 1212 1144 1063 1106 1130 1208 1098 992 1023 1177 1254 1175 992 1052 1330 1118
2678 2892 2932 3004 2928 2643 2552 2576 2527 2290 2170 2135 1979 1894 1895 1911 1832 1739 1688 1741 1765 1784 1722 1721 1679 1615 1537 1489 1446 1360 1266 1138 962 781 716 697 650 482 533 600 568 542 471 462 493 518 406 332 430 481 543 751 766 879 902 873 1024 1042 1096 847 916 962 1010 1133 1332 1160 1207 1171 1106 923 840 756 883 1051 1127 1000 909 865 1219 1260 1240 1118 1035 1220 1315
2521 2852 2886 2737 2568 2528 2614 2524 2366 2351 2259 2131 2090 2145 2103 2077 1986 1887 1902 1868 1710 1700 1802 1752 1646 1608 1570 1560 1467 1301 1187 930 696 660 671 720 697 598 549 592 554 497 492 662 617 627 572 370 340 353 734 769 824 883 873 808 887 868 870 906 1070 1079 984 1146 985 1103 1019 1024 967 722 683 727 805 1004 950 746 670 616 700 1024 1190 1162 1182 1315 1384
2534 2798 2628 2390 2361 2553 2544 2429 2444 2488 2345 2115 2023 2165 2117 2144 2119 2029 1999 1954 1900 1877 1872 1793 1696 1632 1563 1538 1382 1250 1147 844 685 731 949 762 767 646 578 574 557 509 602 762 716 844 778 825 597 513 644 721 788 858 872 839 832 879 900 844 967 933 869 991 869 1147 918 901 760 755 804 780 746 816 957 902 796 622 463 328 786 1063 1152 1190 1312
2548 2581 2410 2333 2360 2465 2490 2545 2630 2474 2280 2099 2120 2122 2135 2125 2186 2033 1973 1874 1896 1866 1762 1759 1675 1620 1529 1550 1335 1274 1218 1053 818 837 1371 973 782 820 611 542 590 676 738 902 955 1032 961 1034 820 709 699 738 733 763 802 862 854 833 852 857 878 901 948 1080 1261 1090 779 709 754 789 834 885 934 979 1090 969 809 639 573 522 565 744 1171 1236 1271
2463 2397 2369 2300 2312 2444 2543 2691 2678 2416 2366 2126 2228 2126 2145 2242 2107 2037 2064 1920 1930 1929 1802 1759 1699 1669 1683 1471 1325 1305 1380 1132 971 908 1318 822 657 759 833 589 874 1225 1256 1335 1324 1402 1158 912 913 926 979 1056 990 886 844 771 717 761 813 812 851 951 1282 1495 1296 1298 754 715 741 776 794 858 831 748 770 807 730 574 501 522 442 431 655 1079 1265
2359 2367 2367 2241 2252 2633 2649 2606 2494 2409 2383 2311 2275 2272 2239 2228 2220 2205 2094 1921 1936 1883 1792 1748 1728 1695 1652 1464 1375 1484 1406 1037 847 1179 1175 758 699 937 1342 1603 1550 1435 1276 1321 1380 1366 1295 992 876 994 1102 1194 1192 1139 905 855 768 910 898 1014 944 1018 1448 951 1048 870 565 550 615 672 734 716 730 643 500 286 315 420 318 417 420 284 712 952 1084
2336 2387 2304 2239 2361 2713 2556 2493 2539 2495 2401 2228 2282 2249 2146 2274 2286 2195 2002 1904 1888 1833 1740 1674 1668 1560 1524 1405 1540 1604 1371 1151 1126 1541 1179 990 1019 1118 1231 1342 1635 1715 1604 1533 1406 1155 1122 985 870 982 1096 1178 1230 1183 1129 1132 1132 1030 1035 1160 1032 1271 1028 684 676 564 457 494 524 566 707 654 509 509 501 414 354 451 357 363 617 522 420 651 948
2336 2395 2428 2439 2532 2518 2454 2516 2594 2448 2343 2301 2230 2168 2186 2266 2316 2182 1977 1899 1825 1794 1704 1653 1593 1496 1558 1637 1646 1515 1443 1215 945 1032 1146 1217 1296 1472 1852 1859 1830 1746 1663 1435 1326 1293 1287 1223 1180 1205 1273 1261 1207 1244 1267 1261 1221 1272 1274 1086 1314 1480 419 396 376 298 309 291 306 376 620 630 151 188 267 250 221 198 174 219 249 180 313 441 533
2289 2426 2483 2487 2760 2378 2484 2567 2528 2427 2389 2321 2173 2164 2183 2298 2316 2245 2018 1913 1866 1772 1743 1712 1708 1531 1539 1690 1676 1561 1312 1074 1104 1195 1220 1292 2061 2001 1751 1864 1826 1686 1460 1372 1294 1318 1226 1210 1187 1191 1198 1240 1302 1352 1161 1259 1361 1494 1116 1208 1228 1442 231 141 15 8 16 21 23 13 7 30 56 196 293 207 134 154 125 148 271 261 321 352 342
2277 2505 2494 2424 2386 2406 2496 2489 2500 2456 2384 2300 2198 2163 2248 2351 2357 2236 2134 2055 1962 1815 1737 1734 1768 1810 1854 1916 1837 1649 1325 1305 1481 1354 1285 1784 1974 1956 1833 1879 1734 1624 1590 1460 1380 1354 1320 1310 1245 1187 1237 1289 1341 1289 1350 1544 1320 1421 1060 1152 1370 828 220 225 0 0 0 0 4 4 2 6 67 264 190 164 119 93 94 126 329 328 262 256 449
2300 2299 2284 2272 2304 2682 2442 2368 2416 2468 2369 2293 2253 2240 2345 2380 2331 2132 2069 2047 1989 1925 1932 1939 2014 2061 2098 2167 2288 1957 1600 1666 1680 1394 1417 1896 2004 2085 1967 1782 1625 1590 1554 1470 1444 1456 1430 1409 1352 1293 1273 1272 1356 1436 1450 1366 1474 1430 1330 1305 1530 791 242 187 110 19 33 17 40 20 39 186 251 327 260 213 170 125 47 62 212 205 188 246 440
2142 2194 2212 2169 2327 2420 2544 2361 2358 2426 2284 2223 2230 2305 2324 2302 2112 1991 2044 2047 2068 1990 1961 2013 2131 2126 2146 2292 2409 2110 1864 1527 1493 1409 1776 1894 2002 2016 1765 1644 1518 1652 1559 1602 1545 1401 1385 1397 1426 1482 1454 1496 1531 1503 1689 1568 1484 1413 1476 1508 1796 1048 307 18 40 3 4 22 33 22 52 185 402 298 227 196 178 156 116 144 179 136 100 329 316
2073 2116 2123 2062 2136 2335 2256 2442 2345 2312 2241 2239 2286 2332 2270 2099 1978 2033 2089 2093 1959 1905 1991 2018 2083 2200 2314 2370 2248 2079 1745 1660 1655 1862 1956 1913 1971 1843 1658 1525 1445 1565 1444 1537 1466 1470 1414 1373 1378 1475 1471 1448 1485 1671 1598 1525 1487 1279 1475 1750 1179 412 262 326 198 0 0 0 104 193 110 272 508 380 289 139 36 168 154 153 111 407 357 161 180
2032 2052 2043 2058 2150 2176 2139 2238 2248 2249 2273 2310 2349 2285 2146 1982 1977 2063 2077 2050 1979 2057 2038 1973 2020 2070 2141 2189 2081 2029 2071 2006 1910 1842 1934 1952 1864 1653 1579 1512 1474 1521 1569 1478 1485 1474 1428 1442 1494 1450 1498 1516 1530 1614 1710 1414 1439 1458 1592 1002 541 352 475 553 381 0 1 24 1 0 0 38 150 285 237 186 215 198 155 149 120 245 410 387 268
1985 1990 1996 2039 2072 2029 2072 2072 2161 2007 2109 2342 2331 2176 2112 2000 1940 1957 1916 1965 2020 2010 1902 1903 1909 1949 1948 1990 2078 1986 2003 2001 1898 1819 1869 1895 1712 1604 1561 1483 1441 1455 1415 1534 1464 1411 1464 1481 1483 1558 1524 1521 1605 1593 1652 1639 1516 1698 1406 593 545 550 564 543 457 46 73 164 17 242 314 554 465 286 292 269 232 190 146 174 205 191 161 140 353
1857 1879 1894 1946 1938 1974 1965 2016 1926 1939 1979 1890 1974 2114 2170 1986 1887 1944 1933 1968 1959 1989 1961 1799 1728 1856 1793 1906 1973 1993 2046 2019 1924 1855 1851 1811 1652 1627 1483 1441 1426 1419 1396 1270 1414 1678 1708 1677 1634 1552 1583 1578 1564 1792 1801 1755 1764 1897 1839 1005 764 544 516 476 468 25 56 10 20 46 208 545 492 262 202 222 200 228 210 221 204 199 220 293 351
1669 1721 1781 1816 1818 1855 1861 1839 1793 1771 1690 1690 1741 1866 1988 1981 2019 1952 1934 2039 2050 1947 1829 1844 1878 1768 1700 1643 1605 1754 1857 1786 1886 1760 1800 1771 1684 1461 1442 1452 1509 1455 1376 1364 1348 1306 1478 1696 1661 1572 1611 1580 1668 1724 1759 1787 1839 1974 1722 728 544 470 380 375 303 5 7 120 123 167 470 334 243 204 217 225 149 140 238 285 232 236 177 186 234
1487 1592 1658 1653 1677 1705 1665 1634 1600 1572 1545 1553 1592 1609 1860 1966 1967 2049 2096 2055 1962 1896 1772 1864 1778 1724 1567 1615 1612 1502 1498 1424 1482 1560 1744 1660 1617 1501 1465 1390 1489 1479 1381 1175 1217 1201 1259 1167 1371 1589 1618 1720 1630 1725 1729 1800 1817 1608 1417 588 464 501 446 357 287 133 108 197 212 113 218 218 151 158 172 198 288 270 142 33 86 112 187 210 163
1223 1352 1487 1509 1503 1534 1531 1498 1466 1448 1464 1444 1439 1567 1715 1791 1680 1870 1899 1796 1865 1817 1722 1622 1559 1513 1550 1331 1402 1351 1290 1254 1305 1718 1408 1610 1418 1548 1433 1328 1374 1420 1300 1170 1112 1172 918 1068 1246 1446 1619 1546 1694 839 901 972 1270 1178 1246 737 470 465 419 373 334 32 42 34 134 190 246 230 201 210 224 193 200 159 143 194 127 80 56 77 160
935 1095 1299 1360 1414 1398 1409 1407 1418 1383 1379 1338 1399 1594 1566 1497 1634 1693 1680 1724 1718 1768 1549 1437 1427 1332 1258 1293 1311 1231 1156 1144 1253 1358 1400 1375 1502 1354 1316 1327 1328 1290 1223 1158 1114 1066 1123 984 952 1256 1475 1511 1418 998 1009 685 745 832 782 523 482 453 439 435 392 49 12 89 27 269 260 262 226 257 195 132 103 57 56 113 116 205 153 117 52
1132 836 1076 1251 1318 1287 1309 1289 1304 1300 1256 1262 1392 1457 1378 1451 1535 1583 1595 1611 1637 1470 1443 1304 1269 1236 1201 1201 1179 1189 1111 1095 1491 1558 1587 1414 1372 1283 1135 1244 1231 1140 1038 1124 1031 1052 1082 985 1027 1183 1223 1016 847 923 1120 669 694 625 488 461 454 460 457 463 369 19 43 221 76 266 240 177 161 162 172 153 88 78 70 78 99 26 32 19 39
1089 733 951 1126 1225 1182 1226 1214 1225 1205 1170 1243 1321 1335 1328 1373 1424 1481 1479 1527 1419 1297 1236 1144 1188 1204 1176 1160 1167 1170 1143 1106 1038 1115 1212 1265 1079 1060 1038 1020 970 923 907 440 576 670 705 664 828 878 578 693 923 1105 1158 837 591 572 586 497 382 396 433 413 386 191 12 59 217 260 161 121 193 227 240 147 160 116 118 98 102 103 74 60 37
988 736 957 1086 1120 1096 1106 1142 1147 1130 1141 1226 1278 1298 1344 1302 1330 1364 1348 1334 1195 1159 1121 1068 1212 1179 1112 1108 1082 1115 1122 995 915 1033 1163 1114 1048 995 977 845 791 684 785 378 380 44 335 239 71 316 547 611 661 774 955 891 832 556 542 580 525 372 340 346 354 213 43 105 235 272 333 261 262 241 165 143 185 202 165 126 92 43 26 39 21
1130 989 1004 985 963 993 978 1009 1068 1091 1121 1210 1243 1327 1272 1245 1271 1294 1239 1121 1023 1023 1103 1116 1133 1130 1135 1056 1045 1058 1053 929 925 1030 1097 1064 1002 966 899 782 631 612 685 481 354 66 31 20 2 0 388 446 464 547 791 956 819 541 513 550 466 420 342 340 320 133 122 98 306 302 321 250 277 266 198 204 201 104 99 81 66 76 72 87 81
1314 1109 940 786 686 908 978 967 986 1050 1104 1177 1231 1272 1207 1222 1252 1271 1166 1020 972 962 1090 1097 1153 1176 1103 1062 1003 1046 1018 939 978 1016 1006 992 989 940 853 714 575 516 619 416 352 95 5 0 0 0 282 287 365 464 667 952 474 438 407 386 387 373 365 345 296 255 92 45 143 241 285 341 243 210 179 154 134 132 130 152 158 158 153 125 145
1494 1197 1026 863 721 829 968 977 1006 1042 1077 1142 1178 1174 1183 1176 1222 1207 1106 1049 969 946 945 1001 1083 1138 1101 1043 994 1008 996 958 977 996 999 955 882 882 791 715 613 40 542 388 305 134 1 0 0 183 242 276 272 321 573 406 309 40 193 257 372 377 373 335 303 110 16 55 116 284 351 248 243 264 191 174 172 169 166 234 209 163 118 37 12
1362 1212 1126 931 846 792 979 1016 1044 1060 1074 1084 1074 1089 1135 1172 1155 1139 1067 1007 969 913 1054 1065 1079 1132 1096 1032 986 963 930 971 918 938 959 947 901 874 811 748 626 389 409 81 55 21 3 0 0 42 229 118 209 277 395 259 246 107 159 398 407 373 368 348 304 43 73 129 185 321 364 542 438 371 256 223 238 219 168 74 75 66 63 34 14
1404 1316 1202 1038 897 825 970 1061 1084 1106 1102 1026 1047 1057 1146 1143 1117 1098 1068 1011 926 911 1114 1169 1147 1150 1114 986 980 948 964 960 871 891 951 944 977 929 907 799 654 402 138 249 331 333 127 114 81 237 38 0 255 239 240 256 200 210 346 421 479 408 389 373 314 214 440 415 108 127 321 194 160 323 685 498 272 245 226 189 173 146 99 48 74
1379 1432 1219 1114 1022 874 950 1041 1098 1116 1042 976 1027 1042 1091 1118 1088 1113 1032 951 885 875 1094 1104 1140 1109 959 897 968 967 1002 944 936 824 798 848 849 792 741 573 536 459 358 328 468 560 420 510 314 301 99 32 101 102 56 13 74 142 270 571 558 457 424 413 365 530 524 386 58 17 62 220 266 376 604 373 344 284 233 298 281 258 159 120 82
1328 1160 1088 1006 1026 1003 893 1044 1114 1116 981 877 951 1039 1039 1095 1077 1023 970 928 805 800 974 1067 1090 965 783 690 904 933 1009 926 964 946 874 752 548 633 572 507 543 558 514 507 505 579 449 470 392 327 216 31 51 58 102 4 32 85 418 636 590 553 544 532 574 602 544 396 6 0 19 121 281 678 542 262 565 573 449 402 318 228 136 111 47
1431 1200 1016 897 902 1007 972 1073 1062 1121 1000 883 966 1062 1054 1090 1020 925 940 894 806 756 889 1021 1001 986 768 710 626 794 843 808 796 755 778 671 485 493 495 430 480 599 645 826 431 307 148 427 133 148 392 130 21 12 17 45 60 76 147 667 721 650 601 609 636 607 517 341 1 0 2 8 19 153 462 701 878 730 715 552 460 287 176 42 34
1438 1246 1077 887 858 861 834 987 1113 1057 1018 936 996 1044 1089 1082 994 968 923 873 803 732 906 1020 995 945 818 713 609 695 783 749 756 720 725 615 458 391 62 367 429 523 679 873 346 430 348 295 331 424 247 291 83 197 13 15 80 221 210 607 773 691 596 622 635 605 491 319 26 13 3 4 116 248 393 631 1061 810 778 604 589 633 284 96 46
1340 1183 1053 848 718 732 761 898 849 1034 915 839 904 1056 924 919 930 903 963 916 760 791 967 1100 1050 938 828 698 730 610 645 754 804 656 676 597 442 374 373 388 378 428 584 740 566 598 544 374 458 407 270 177 217 78 14 46 131 432 483 559 735 732 672 603 602 554 458 360 281 114 121 252 311 556 660 378 465 668 646 529 692 796 604 257 216
1301 1162 1034 924 754 756 785 720 840 1057 828 598 662 854 828 801 723 839 920 955 858 812 989 1148 1132 1029 826 720 720 728 709 785 730 654 652 484 384 78 333 161 413 500 586 680 594 506 452 411 493 334 24 38 58 66 13 31 202 515 579 535 674 727 674 604 587 516 465 450 374 306 334 503 682 780 341 312 410 487 386 416 672 764 769 513 355
1222 1136 1049 982 827 716 786 746 782 761 791 739 768 752 851 793 815 967 1057 1008 914 929 962 1134 1123 1092 915 778 786 697 686 696 653 628 565 508 220 75 418 471 442 452 457 722 432 412 351 299 452 432 367 354 301 329 109 106 388 540 565 512 541 697 671 596 561 494 459 429 422 373 442 565 486 418 424 403 440 437 390 430 518 607 795 530 384
1266 1201 976 876 827 824 709 827 896 694 733 722 727 804 768 856 1010 1015 1069 1024 1010 1065 996 1085 1154 1031 902 790 860 599 531 560 559 545 545 487 365 320 485 490 438 471 394 448 451 492 329 415 375 429 363 393 366 265 345 386 448 488 468 474 451 442 572 579 513 491 466 434 414 455 365 350 335 395 482 512 508 482 280 282 348 326 408 548 336
1280 1146 811 855 694 695 907 849 726 755 882 755 785 740 781 884 967 1026 1158 1172 1117 1133 1128 1143 1142 1061 770 806 842 674 569 549 532 650 602 448 418 468 558 473 539 519 367 390 420 379 406 318 414 483 415 382 347 338 435 462 474 476 501 537 511 416 343 491 510 467 438 368 426 422 391 337 403 356 360 428 489 487 438 341 364 475 484 548 370
1196 960 950 635 443 626 879 956 884 758 789 826 826 788 837 888 1012 1101 1137 1170 1252 1210 1201 1189 1084 871 667 683 729 738 668 541 508 575 514 434 418 410 475 470 493 421 379 293 298 526 395 399 477 494 387 336 237 420 501 446 399 372 408 417 473 476 289 295 398 292 356 392 412 470 380 236 273 332 269 288 329 396 493 437 426 486 298 303 443
1096 1071 828 594 821 652 804 725 769 759 584 656 798 649 747 963 1028 1106 1088 1133 1144 1008 956 934 913 741 671 688 834 812 630 511 505 461 495 460 365 209 375 486 536 422 402 389 99 312 391 523 383 452 342 273 140 376 402 314 224 235 260 273 337 347 305 298 347 323 193 304 285 323 301 228 252 279 258 296 264 302 441 440 367 346 239 79 1
1412 939 726 682 948 866 893 875 687 303 615 645 686 654 740 982 1062 1058 1029 951 911 855 759 704 740 760 720 746 822 823 696 575 601 605 505 489 478 167 35 473 582 341 450 319 359 361 506 389 435 432 361 264 305 334 393 69 55 187 152 131 128 146 124 197 163 192 206 133 108 214 202 260 362 352 331 311 308 294 325 422 408 302 244 246 279
952 594 662 790 874 859 851 658 174 420 708 521 582 645 748 1042 1110 946 928 919 956 934 922 807 751 746 722 714 810 793 717 672 688 689 710 572 462 305 208 261 367 293 350 410 433 456 608 382 448 416 365 352 391 339 362 332 104 27 24 46 109 120 116 147 131 100 111 192 224 199 230 288 306 350 371 296 168 65 261 295 363 279 223 0 0
1069 782 805 941 737 623 756 457 533 744 599 461 466 528 775 1066 1043 982 1016 960 935 965 948 893 748 759 615 498 595 723 725 615 620 600 638 681 502 223 252 397 427 494 409 478 648 680 473 213 470 481 426 404 414 379 339 282 41 2 0 8 20 52 85 141 104 34 124 191 216 241 45 154 232 294 274 208 188 154 208 182 252 286 244 0 248
1188 892 986 1082 764 818 602 497 814 832 695 574 343 441 700 985 992 998 1054 1002 944 887 836 801 730 666 663 523 500 544 585 629 605 573 590 562 477 392 487 564 594 676 774 719 607 747 637 587 511 508 432 386 378 383 409 468 301 28 0 0 0 13 9 62 74 35 118 172 176 208 180 190 169 196 235 157 159 140 6 0 135 222 212 166 195
1138 985 1049 1161 671 631 617 731 828 769 673 492 472 587 755 953 1010 972 982 965 834 856 865 746 672 611 562 518 529 543 557 628 567 535 514 482 446 432 750 675 644 861 868 843 774 820 813 684 530 520 407 389 377 411 503 370 241 348 306 26 140 4 2 0 6 57 158 158 250 240 183 229 254 216 184 83 0 183 191 190 176 171 132 0 0
1106 1126 1080 824 655 738 768 882 793 704 653 550 620 738 848 986 1035 978 922 913 739 750 849 728 650 603 566 556 509 518 471 436 424 513 462 579 546 703 850 786 1015 1154 836 917 765 928 969 802 540 490 433 416 449 454 476 360 229 532 341 76 229 0 0 0 2 62 74 91 125 193 216 4 253 215 164 159 170 28 153 170 166 0 0 0 0
1110 1126 832 907 762 844 894 922 824 740 669 635 734 860 978 1024 1013 967 890 851 704 642 739 734 653 593 565 594 528 432 386 342 407 398 475 578 612 779 852 828 1290 1078 856 720 916 957 1002 816 618 583 578 558 529 478 478 359 266 584 436 378 236 0 0 0 0 0 44 123 138 147 159 157 167 165 182 46 1 84 205 188 169 1 0 17 0
1145 761 802 921 871 967 932 897 808 715 731 753 813 935 1006 1022 986 905 800 724 612 567 700 802 734 547 547 508 424 465 437 430 411 394 485 562 613 842 915 953 1270 1145 989 790 685 783 787 788 795 695 586 554 556 504 471 384 346 465 427 301 12 0 0 0 0 0 1 43 124 139 131 202 161 137 13 0 0 0 161 71 0 0 0 0 0
825 693 617 779 931 1013 973 937 865 833 824 974 1008 1016 1045 1050 1022 939 784 646 634 626 652 784 673 465 441 405 467 551 466 436 448 412 470 537 672 884 817 933 1235 1173 992 754 719 676 745 785 754 707 680 564 594 597 492 474 460 434 369 5 23 17 0 0 0 0 0 6 92 120 149 38 0 5 0 0 0 0 0 0 0 0 0 0 0
Wind_Speed
19 25 26 29 30 32 34 36 36 36 35 35 34 35 35 35 35 35 34 35 35 35 36 37 38 39 39 38 37 36 35 34 33 31 31 31 32 32 31 29 28 27 26 nan 23 22 22 21 19 20 22 22 23 22 20 19 20 19 16 20 22 25 24 19 21 23 24 21 20 19 18 17 16 16 17 16 16 15 15 14 11 8 5 8 12
22 23 25 27 31 31 33 35 35 35 35 35 35 35 35 34 34 35 35 35 35 35 36 37 38 39 39 38 37 36 34 33 32 30 30 31 30 31 29 28 27 27 26 26 24 22 22 20 19 19 20 21 21 20 19 17 18 20 17 19 21 21 22 22 22 21 20 16 16 19 21 20 18 17 16 14 15 16 15 15 14 6 4 12 12
27 26 25 28 32 33 34 35 35 35 34 35 35 34 34 34 34 34 35 35 35 35 36 37 39 39 39 39 37 36 34 32 30 29 29 30 30 30 28 27 26 26 25 25 24 22 20 21 20 19 20 20 19 19 18 16 15 15 19 17 17 16 18 21 19 17 18 18 19 20 21 22 20 18 16 15 16 16 17 16 14 13 8 14 12
31 27 26 29 34 33 34 35 35 36 34 34 34 34 34 33 34 34 34 34 34 34 36 37 38 38 38 39 37 35 34 32 29 28 29 30 29 29 28 26 25 25 25 23 23 22 19 20 20 19 20 19 19 18 17 16 12 11 12 15 16 15 17 18 19 19 18 18 17 14 10 10 14 17 17 17 16 16 16 17 16 16 16 13 14
31 26 25 26 27 31 33 34 33 35 35 34 34 34 34 34 34 34 33 33 33 35 35 36 38 37 38 38 37 35 34 32 29 28 29 29 29 28 27 25 24 24 23 22 22 22 22 19 19 19 17 17 17 17 17 15 13 11 11 11 13 11 9 11 15 16 16 17 16 12 9 10 10 17 17 17 16 15 14 15 17 15 15 15 14
31 26 25 25 25 27 32 33 34 35 34 34 34 34 34 34 34 34 34 34 34 34 35 36 37 37 38 37 36 35 34 32 28 27 27 28 26 26 26 25 24 23 22 21 20 21 21 20 18 16 15 15 14 14 13 12 11 11 10 10 9 9 8 7 8 12 15 16 15 10 10 10 9 12 18 17 17 16 15 14 15 15 15 15 15
33 27 26 25 24 26 31 32 34 35 34 34 34 33 33 34 34 34 34 34 33 35 35 36 37 37 37 36 35 35 34 31 28 25 23 27 26 24 26 24 23 22 20 20 20 20 19 17 16 15 15 15 14 12 11 10 10 10 10 9 9 8 7 7 5 9 15 10 9 9 9 9 10 10 19 17 17 17 16 16 15 14 15 14 15
30 27 26 25 24 27 31 32 34 35 34 34 34 33 33 33 34 34 33 34 33 33 34 36 37 37 37 35 35 35 33 30 27 25 25 27 26 24 25 25 23 20 20 20 20 20 18 16 14 13 14 14 13 11 10 9 9 8 8 8 7 8 9 10 9 14 16 9 7 8 9 9 9 10 17 18 17 17 16 16 15 13 14 15 14
31 29 27 26 26 32 31 32 33 36 34 35 33 33 33 33 33 33 33 34 33 34 35 36 38 37 37 36 35 34 31 29 26 25 27 27 26 25 23 23 22 20 19 20 19 18 16 14 11 11 11 12 11 10 7 7 7 7 6 6 6 8 9 15 20 18 10 7 7 7 8 8 8 8 14 16 15 17 17 14 13 15 15 15 14
32 30 29 27 28 32 32 33 33 34 34 33 32 33 34 33 33 32 33 34 34 35 36 38 38 37 37 36 35 33 31 27 25 26 28 28 27 25 24 23 23 22 21 20 19 17 16 14 12 10 10 10 9 8 6 4 4 4 5 6 8 9 11 15 19 13 8 7 7 7 8 11 8 9 13 15 16 16 15 14 13 13 13 15 16
31 31 30 29 31 32 32 33 32 32 33 33 33 33 33 33 33 32 32 33 35 36 37 39 38 38 38 37 35 33 29 26 26 28 28 28 26 26 25 24 23 23 22 20 19 18 17 15 13 10 10 9 8 7 6 4 3 4 5 7 9 10 14 15 13 9 7 6 6 7 9 13 8 6 15 15 17 17 16 15 16 17 16 15 15
30 30 29 28 33 33 32 31 30 29 31 31 32 33 33 32 33 33 32 32 34 36 37 38 38 38 38 37 35 33 29 26 26 28 28 28 27 26 26 26 24 24 22 21 19 19 18 17 14 11 10 9 8 7 6 5 4 6 7 7 8 9 16 15 nan nan nan nan nan nan nan nan nan 11 17 16 16 16 16 17 16 16 16 16 16
32 28 28 28 29 31 31 29 28 28 30 31 32 32 32 32 33 33 33 32 33 36 38 39 38 37 37 37 36 33 29 26 25 27 28 28 28 27 26 25 24 24 23 21 20 20 18 17 15 12 11 10 9 7 6 6 5 6 8 8 8 12 15 14 nan nan nan nan nan nan nan nan nan 16 16 16 17 nan nan 18 18 18 16 17 17
30 27 26 28 28 33 30 28 27 28 29 30 30 30 30 31 32 33 33 33 35 37 38 39 39 38 37 36 34 32 28 25 23 26 28 28 28 28 27 25 25 24 23 22 20 20 19 17 15 13 11 11 11 10 8 8 6 4 7 8 6 10 14 10 9 nan nan nan nan nan nan 9 10 17 18 17 16 17 nan nan 18 17 16 17 18
29 27 27 26 26 27 32 28 27 28 29 29 29 29 29 30 31 32 33 36 37 39 40 40 39 39 39 37 34 33 29 25 24 26 28 28 29 29 27 25 25 24 23 22 21 21 20 18 14 12 12 11 12 11 10 8 6 5 7 7 5 8 11 nan nan nan nan nan nan nan nan 9 15 16 18 17 17 17 17 18 18 18 18 17 17
28 28 27 25 25 25 25 28 28 28 28 29 28 28 29 30 31 33 34 36 38 40 41 40 41 40 39 37 35 33 30 25 24 26 26 28 30 29 26 25 25 24 23 23 22 20 19 18 15 12 12 11 10 10 9 8 8 7 6 5 13 14 12 7 5 nan nan nan 7 8 8 9 16 17 17 18 nan 17 18 19 19 19 17 18 17
27 27 27 27 28 25 22 22 24 29 27 28 28 28 29 30 31 33 35 37 39 39 40 40 40 41 40 38 36 32 29 25 25 27 27 28 29 28 26 25 24 23 23 23 23 21 19 17 15 12 11 10 9 7 8 9 9 6 7 17 20 17 15 11 7 nan nan nan nan nan nan nan 15 18 19 19 19 19 19 19 19 19 20 19 18
26 27 28 27 26 25 23 22 23 23 22 26 27 28 29 31 32 33 36 38 39 39 39 39 40 41 41 39 36 33 30 27 26 27 28 28 28 28 26 24 24 22 23 24 23 21 20 18 15 12 10 8 7 6 8 10 10 7 13 22 19 18 17 13 7 nan nan 7 nan 6 7 12 17 17 19 20 20 20 19 19 19 18 18 19 18
27 28 28 27 25 24 24 22 21 21 22 22 22 26 31 32 33 35 37 38 38 37 37 38 40 40 40 39 37 35 33 29 27 27 29 29 28 27 26 24 23 22 22 23 23 21 19 17 14 11 9 8 6 6 8 10 11 11 9 17 18 17 18 10 6 nan nan nan nan nan 9 15 16 19 19 19 19 19 20 20 20 20 19 18 19
27 28 27 25 24 24 23 22 21 21 22 23 24 26 31 35 34 35 37 38 38 37 36 36 38 40 40 39 37 32 31 28 30 26 29 29 28 24 25 23 22 21 22 23 23 21 19 17 14 10 9 8 6 6 7 9 11 12 13 17 17 14 9 7 7 nan nan 7 6 7 13 17 18 19 19 19 18 19 20 19 20 20 20 19 19
26 26 25 24 24 25 24 22 21 23 24 26 28 30 31 35 32 34 37 38 38 38 37 37 37 36 35 35 33 28 25 24 24 22 28 24 25 27 25 23 22 21 21 22 21 21 19 16 14 11 8 8 6 5 6 10 8 12 18 18 16 8 7 8 7 7 6 7 7 9 17 17 19 20 20 21 20 19 19 nan nan 20 21 20 19
27 25 23 24 24 24 23 23 23 25 27 28 29 30 30 31 28 28 29 31 34 36 36 34 34 31 34 31 28 26 24 24 23 25 23 24 24 27 25 23 21 20 20 21 20 20 18 15 12 10 8 7 6 5 7 8 8 14 20 18 11 8 7 7 7 nan nan nan 6 11 18 18 19 21 21 21 20 20 20 20 20 nan nan nan 20
27 25 23 24 24 24 24 24 25 27 29 31 31 30 29 26 25 26 27 30 30 31 31 33 31 30 29 29 27 24 23 23 23 24 23 27 25 26 25 23 21 20 20 20 19 19 17 14 10 9 9 7 6 6 8 7 5 13 17 12 10 8 6 5 5 nan nan nan nan 15 17 19 20 21 22 22 21 nan nan 21 22 22 20 19 nan
27 25 25 25 25 24 24 24 26 28 31 31 31 30 27 24 23 25 27 28 27 27 27 26 26 27 29 29 27 24 23 22 25 30 28 23 23 24 24 23 21 19 19 17 18 17 15 13 9 8 9 8 6 7 8 7 5 8 11 11 11 10 8 7 8 nan nan 10 nan 19 19 20 21 22 23 23 nan nan nan nan nan nan nan nan nan
29 30 27 25 24 23 24 25 28 30 32 32 31 29 26 24 24 25 27 27 26 23 22 20 21 26 27 27 26 23 22 22 22 23 23 22 21 19 19 18 17 17 18 16 15 12 13 10 8 8 8 8 6 6 7 9 4 8 11 12 13 13 12 11 11 12 nan nan 15 22 22 22 22 23 24 24 23 21 21 nan 21 22 nan nan nan
31 29 25 24 22 23 25 27 30 31 32 31 29 28 26 24 24 25 26 26 24 20 18 17 19 22 24 25 25 23 22 22 23 23 23 21 20 19 17 16 17 16 16 16 14 nan 10 10 nan 8 8 8 5 6 7 9 4 5 9 9 11 12 12 11 11 11 nan 14 16 22 21 22 23 24 24 24 24 23 21 21 nan nan nan nan nan
28 25 24 24 25 26 27 28 31 32 32 30 28 26 24 24 24 24 25 23 20 17 17 16 16 17 19 21 22 21 22 22 23 24 23 20 19 18 17 17 17 16 15 16 13 nan nan nan nan nan 9 7 5 7 8 8 6 3 7 7 8 9 9 10 9 9 10 nan 14 21 20 21 22 24 24 24 24 23 nan nan nan nan nan nan nan
25 22 24 28 27 25 26 30 32 31 29 27 26 24 23 23 21 22 22 20 18 16 16 16 17 17 17 18 18 19 20 21 23 24 22 19 19 19 18 16 15 15 14 14 13 nan nan nan nan nan 8 6 6 8 10 9 6 3 6 7 8 8 8 9 8 8 nan nan 13 18 20 21 22 23 24 23 23 22 21 19 19 19 19 20 20
22 21 28 28 25 26 29 30 31 30 27 26 24 22 21 21 19 20 20 18 17 17 18 18 18 18 18 18 18 18 18 19 21 22 21 18 17 17 16 14 14 nan 14 13 13 11 nan nan nan 9 10 6 7 10 12 9 7 nan 7 8 8 8 8 8 8 9 nan nan 13 17 22 23 21 22 23 23 22 21 20 19 18 19 19 nan nan
18 25 26 26 29 29 28 28 29 29 28 28 25 23 21 19 17 19 19 19 19 18 19 20 19 19 18 18 17 17 17 19 20 20 20 17 16 16 15 14 13 14 14 nan nan nan nan nan nan nan 11 9 10 10 11 8 9 7 8 9 8 8 8 9 9 nan nan 11 13 16 22 19 17 18 20 20 20 20 20 nan nan nan nan nan nan
25 25 27 29 28 27 27 28 29 30 29 27 23 21 20 17 17 19 20 22 20 20 20 21 20 19 17 16 14 14 16 18 19 19 17 16 17 18 16 16 15 13 13 11 12 11 11 9 nan 14 nan nan 11 10 9 9 8 8 8 10 9 9 9 10 10 10 10 12 13 14 16 20 17 16 14 16 18 18 18 17 16 16 nan nan nan
33 32 32 30 25 23 26 27 30 30 30 28 23 20 20 19 19 20 21 23 20 19 19 20 19 16 14 13 12 13 15 17 19 17 16 16 18 19 18 19 18 16 13 11 11 16 15 11 15 13 nan nan 11 11 nan nan nan 7 9 11 9 9 8 9 10 10 11 12 nan nan nan 11 15 14 15 14 13 15 16 16 16 15 15 15 nan
30 30 29 27 25 25 23 25 28 27 28 28 25 22 22 22 21 20 21 22 20 18 18 18 17 14 12 12 13 13 14 17 18 17 16 16 18 19 19 18 19 17 16 14 18 23 16 10 16 12 11 nan nan nan 12 nan nan nan 10 10 9 9 9 9 9 9 11 12 nan nan nan 8 8 11 14 13 9 11 13 14 14 14 14 14 nan
27 26 26 21 19 22 24 22 21 24 26 26 25 23 21 22 22 20 21 21 19 18 18 18 16 14 12 12 13 13 14 16 17 16 17 18 18 17 16 16 19 20 20 20 23 21 12 11 17 13 14 14 nan nan nan nan nan nan 10 9 8 9 10 10 8 9 11 11 nan nan nan nan nan 7 7 10 10 11 12 11 12 13 13 nan nan
27 26 23 22 21 24 21 16 15 20 25 26 25 24 24 23 22 20 20 19 18 18 18 17 16 14 13 12 13 14 14 15 13 14 16 18 17 15 nan 15 17 19 20 22 23 19 11 10 14 13 14 14 nan 9 nan nan nan 9 10 9 9 9 9 9 8 8 10 8 nan nan nan nan 6 6 5 5 8 8 9 9 9 11 10 nan nan
33 30 26 24 20 22 24 20 18 20 26 27 25 23 22 21 20 20 20 19 19 18 17 16 15 14 13 13 13 14 14 12 11 13 16 16 15 14 14 14 17 18 19 21 22 19 11 10 11 12 12 10 9 nan nan nan 9 10 10 9 8 9 9 9 8 8 8 7 6 5 5 4 5 5 5 6 6 6 8 7 6 7 7 7 7
30 31 31 27 19 19 24 28 25 27 29 27 25 21 18 17 17 19 20 20 19 17 15 14 14 14 13 13 13 14 14 12 11 13 16 15 14 nan 15 16 16 17 18 19 20 18 14 10 12 8 nan nan nan nan nan nan 9 9 10 11 9 9 9 9 9 7 6 6 5 5 4 4 4 5 6 6 5 5 6 4 5 7 5 5 5
27 29 34 32 27 24 27 34 29 27 29 28 26 24 15 14 18 19 20 20 18 16 14 13 13 14 14 13 12 13 12 11 12 13 15 14 14 nan 15 17 17 16 18 17 16 15 14 12 11 7 7 10 7 7 8 9 9 10 10 10 10 9 8 9 8 6 6 6 5 4 4 3 4 5 6 4 3 4 8 7 8 11 10 7 5
27 30 33 32 28 26 29 35 30 26 31 28 24 21 17 18 20 20 19 20 18 15 14 13 12 12 12 11 10 11 11 10 12 14 15 14 15 14 15 15 16 16 17 17 16 15 15 12 9 9 9 8 9 7 9 11 11 11 11 11 10 10 8 8 8 7 6 5 6 5 3 3 3 4 4 2 2 2 5 6 9 9 11 10 6
35 36 34 28 28 25 23 28 27 24 30 25 20 18 19 22 21 19 19 18 16 15 15 13 11 10 10 9 9 9 9 9 11 12 14 14 13 14 15 14 14 14 16 18 17 17 14 10 8 10 11 10 9 9 10 13 13 13 12 11 11 10 8 7 7 6 6 5 5 4 2 1 4 3 3 3 2 1 3 5 7 11 11 11 12
35 32 34 33 30 20 21 25 26 26 29 24 21 18 19 21 19 17 16 15 15 16 15 13 10 9 8 8 8 9 9 10 10 12 13 14 13 16 16 14 14 13 16 17 16 17 14 12 9 8 12 12 9 7 9 12 15 12 12 12 11 10 9 8 8 7 4 5 4 4 4 4 4 3 2 2 1 2 3 4 6 8 9 8 8
28 30 32 36 37 30 26 25 26 33 34 31 20 17 16 15 15 15 14 13 15 14 12 11 9 9 9 8 8 9 9 11 11 11 12 13 13 16 16 14 13 14 16 15 nan 15 13 11 10 11 9 13 11 8 10 13 11 11 11 10 10 10 10 10 9 9 6 5 5 6 6 5 4 1 1 1 1 2 3 5 6 6 7 nan nan
30 32 31 36 36 35 32 29 21 22 34 26 18 14 16 15 15 15 12 12 14 14 13 13 12 10 9 10 10 10 11 11 11 11 11 12 13 15 nan 12 12 14 16 16 16 16 12 11 10 12 10 10 11 7 9 nan nan 11 11 12 8 8 8 9 9 9 7 6 6 6 5 4 2 1 2 2 1 2 4 4 5 6 6 6 7
33 35 35 33 32 29 32 32 30 30 20 13 11 17 18 15 16 16 14 13 11 12 14 13 13 11 8 10 10 11 11 10 10 9 10 11 12 12 11 11 12 15 16 14 15 15 12 13 11 12 12 13 10 7 6 8 12 nan nan nan 8 10 10 9 9 nan 7 6 7 8 6 6 4 4 4 2 2 nan 4 4 4 5 6 nan nan
31 33 33 32 29 29 29 32 33 37 32 29 21 14 12 14 17 19 16 16 15 14 13 12 10 8 9 9 7 9 10 10 9 9 9 8 9 10 10 11 13 15 16 13 13 12 11 12 12 13 11 13 11 10 6 9 nan nan nan nan nan nan nan 10 10 nan 7 7 7 8 nan 6 5 5 4 4 5 5 4 5 5 6 7 nan 8
29 30 31 32 29 28 28 30 35 40 39 35 29 23 16 11 12 13 12 11 11 11 9 8 8 7 6 9 9 8 9 9 9 9 9 8 9 10 11 12 14 15 14 12 14 14 14 14 13 13 12 11 14 12 10 8 8 nan nan nan nan nan nan nan nan nan 8 8 8 8 8 8 7 6 7 5 5 6 nan nan 7 7 8 9 8
27 29 29 31 30 29 26 26 35 36 35 33 26 19 16 12 10 9 8 8 10 9 10 9 8 7 10 9 8 9 9 10 11 11 10 9 11 11 10 13 14 15 15 16 16 15 15 15 14 14 13 13 14 13 11 10 7 7 7 nan 11 nan nan nan nan nan 9 7 8 8 8 9 8 8 6 nan nan 7 8 7 7 8 8 nan nan
29 28 28 28 29 26 24 21 24 29 28 29 28 21 18 14 12 10 8 7 7 8 10 11 11 10 11 10 9 8 10 12 12 12 12 11 10 10 12 14 16 16 16 17 17 17 17 17 15 13 14 14 13 13 11 10 9 7 10 nan 14 nan nan nan nan nan nan nan 8 8 9 nan 8 8 7 6 7 nan 7 8 7 nan nan nan nan
27 28 28 27 27 24 21 16 16 21 23 28 28 23 17 16 15 13 11 7 9 11 12 13 13 13 13 11 9 9 11 12 13 13 12 11 10 11 14 15 17 17 17 18 18 19 17 17 16 15 14 13 13 12 12 9 9 9 13 14 16 nan nan nan nan nan nan 10 10 8 8 9 7 7 7 nan nan nan 8 7 7 nan nan nan nan
22 24 27 29 27 24 20 15 11 14 16 19 23 23 18 12 11 10 11 14 16 15 13 12 13 13 12 10 9 10 11 12 12 14 13 10 11 13 14 16 17 18 18 18 18 18 16 16 15 14 14 14 14 12 10 10 10 10 11 13 nan nan nan nan nan nan nan nan 10 10 8 7 7 6 nan nan nan nan 8 nan nan nan nan nan nan
19 23 25 25 27 24 21 17 14 19 22 19 17 20 20 16 14 12 11 13 16 16 14 13 14 13 12 11 11 11 12 11 12 12 12 12 12 13 16 16 17 17 18 19 18 17 16 16 15 15 15 14 14 12 12 12 11 11 11 nan nan nan nan nan nan nan nan nan nan 11 9 nan nan nan nan nan nan nan nan nan nan nan nan nan nan
Wind_Direction
295 297 294 295 294 292 291 290 289 290 290 289 290 291 292 293 294 295 295 297 301 303 305 307 309 309 309 308 308 308 306 305 303 303 305 306 306 303 300 299 299 300 300 nan 302 303 304 301 295 291 286 286 286 283 281 281 278 275 280 294 289 289 289 284 274 267 264 266 262 261 256 250 240 234 239 239 240 241 240 238 233 231 226 249 259
302 298 295 295 296 295 293 289 290 290 290 290 291 292 292 293 293 295 296 299 302 305 307 309 310 311 310 310 310 309 307 305 305 307 310 310 306 305 305 301 300 300 299 299 300 303 304 299 295 297 291 286 284 285 283 278 280 295 303 284 284 290 291 284 270 264 269 273 272 260 257 255 250 244 243 245 245 242 240 244 245 232 226 254 257
296 298 297 299 299 297 294 293 292 291 291 291 292 293 292 292 293 294 296 300 303 306 307 310 311 312 311 311 311 310 308 307 307 310 310 310 307 304 304 303 303 300 298 297 298 301 303 303 304 299 296 290 289 288 283 274 271 271 271 274 273 268 268 274 283 285 270 263 258 253 250 248 246 244 242 242 245 244 242 243 246 248 246 249 249
297 299 298 300 300 297 295 295 294 293 291 291 291 292 292 292 293 294 297 301 305 306 308 310 312 312 312 311 312 311 309 308 310 312 312 309 307 306 306 305 304 300 299 299 299 300 301 300 299 303 299 294 292 289 288 284 273 266 270 280 287 286 275 253 246 249 251 250 245 241 235 234 242 244 243 241 240 244 245 243 244 249 252 254 257
295 298 296 293 292 295 295 294 292 292 291 291 290 291 292 292 292 294 298 303 305 307 309 311 311 311 311 311 312 311 308 308 310 311 312 311 309 308 306 305 305 303 300 299 299 300 299 298 300 300 298 299 294 291 291 292 281 260 255 255 267 258 240 238 240 235 247 246 237 231 224 233 235 245 244 241 240 239 246 252 248 247 251 253 256
295 295 290 287 288 291 294 293 291 291 291 291 289 290 292 292 292 295 300 304 305 306 309 310 310 310 309 310 311 310 307 308 310 312 314 308 308 309 306 307 307 305 304 303 299 296 296 300 306 310 305 295 288 284 283 280 268 251 239 233 234 235 230 239 243 227 251 243 233 215 215 221 224 233 243 243 242 237 240 249 246 242 246 251 251
292 291 289 286 285 289 293 292 292 291 290 290 289 290 292 293 294 298 301 303 304 306 307 308 309 308 309 309 309 308 307 308 310 310 309 308 307 309 308 306 306 308 306 301 298 297 297 300 305 305 300 291 283 281 280 271 256 245 234 226 218 208 199 192 195 262 253 231 217 216 214 217 224 226 241 237 240 241 240 242 246 246 242 242 249
287 290 291 289 286 292 293 291 291 291 290 291 290 292 294 295 298 300 301 302 302 304 306 307 307 308 308 308 308 307 307 309 309 307 304 306 309 310 311 308 305 302 301 299 295 293 297 302 304 302 293 286 281 275 273 263 248 241 235 227 215 194 184 183 266 287 258 240 227 225 226 218 219 229 241 237 239 243 247 244 243 247 245 244 245
288 291 291 290 291 296 293 290 291 292 290 292 293 295 296 297 298 298 299 300 301 303 305 306 307 307 307 307 307 306 307 308 308 305 305 305 309 310 309 306 306 302 298 295 294 296 298 304 306 297 287 284 276 268 268 260 254 246 240 232 218 200 195 252 266 268 253 240 234 237 241 232 218 228 247 245 246 247 245 239 241 251 252 248 249
291 291 292 289 291 295 293 291 291 291 292 295 296 297 298 297 296 296 297 299 301 304 306 306 306 306 307 306 306 306 306 305 306 305 304 307 310 313 312 309 308 303 301 297 295 298 303 307 309 297 282 284 273 254 257 252 252 255 246 231 217 213 237 258 262 253 243 244 245 245 252 251 230 235 254 259 260 260 261 260 248 243 246 252 250
291 290 289 288 291 292 292 291 291 292 295 296 298 299 299 297 295 295 296 299 302 303 304 305 304 304 304 305 305 305 304 304 305 305 306 310 312 308 307 306 302 301 300 297 299 303 308 306 305 293 278 278 266 247 241 244 261 252 241 228 219 221 257 259 256 247 235 240 244 239 253 248 234 233 259 261 256 252 250 252 250 247 247 250 250
293 292 289 288 293 292 292 291 291 292 295 296 299 300 299 297 296 297 299 300 301 301 302 302 301 302 303 304 304 304 304 304 304 305 307 307 304 305 305 303 301 300 301 302 302 303 306 307 301 291 274 264 256 243 237 247 263 247 227 224 223 234 272 266 nan nan nan nan nan nan nan nan nan 254 261 260 258 258 255 256 259 258 253 250 251
299 294 290 288 289 294 293 294 294 294 295 298 299 300 299 297 298 299 300 299 299 300 300 300 300 299 300 302 302 303 303 302 303 305 306 306 306 303 303 301 301 301 301 300 299 301 302 302 297 287 268 254 245 239 237 245 259 242 218 212 216 257 274 270 nan nan nan nan nan nan nan nan nan 264 264 263 261 nan nan 257 250 246 252 252 252
301 295 293 294 293 300 298 296 295 295 296 297 298 299 298 298 299 300 300 300 299 300 299 300 299 298 299 300 300 301 300 299 301 304 305 305 304 300 300 301 300 300 298 296 296 297 299 298 295 286 271 254 240 229 234 241 252 242 217 200 207 271 281 273 272 nan nan nan nan nan nan 236 244 254 258 260 259 257 nan nan 263 261 258 256 251
299 296 294 293 294 295 303 299 297 297 297 296 296 297 298 297 297 298 299 299 300 300 300 300 298 298 299 299 298 298 299 300 301 303 303 304 302 300 300 301 301 297 296 294 294 297 298 298 294 286 271 257 241 230 227 234 242 250 209 199 187 291 296 nan nan nan nan nan nan nan nan 246 258 262 264 267 265 264 260 261 261 261 258 251 250
299 296 294 292 291 293 294 302 301 298 296 295 295 296 295 294 296 298 297 297 298 298 298 297 297 296 297 297 297 298 299 299 298 297 299 302 301 300 302 302 301 298 295 293 292 295 296 298 297 287 272 260 248 233 225 225 235 243 225 208 295 302 304 314 311 nan nan nan 264 264 265 268 274 272 270 267 nan 263 255 253 257 258 261 256 253
298 296 294 292 291 289 290 292 295 298 294 293 291 291 291 292 295 296 294 293 293 293 294 295 295 295 296 297 297 295 295 293 293 298 299 300 300 300 301 300 299 297 295 292 293 294 297 299 299 290 277 269 258 239 221 216 230 246 252 298 304 310 315 321 327 nan nan nan nan nan nan nan 277 277 274 270 265 263 262 262 260 256 255 257 256
293 292 293 290 286 286 285 286 289 285 284 287 287 290 291 293 293 292 291 290 289 291 292 293 293 295 297 297 295 293 291 290 292 296 298 300 298 299 300 300 298 297 295 293 293 294 297 300 302 296 285 275 261 239 211 208 224 247 294 309 308 313 315 320 327 nan nan 289 nan 276 279 278 273 274 274 273 272 270 270 269 266 265 264 260 258
288 286 288 287 284 284 285 284 282 283 283 277 278 287 289 290 290 290 288 288 288 288 289 292 294 295 296 295 294 293 293 292 292 294 297 298 299 298 300 300 298 297 294 292 294 296 297 298 299 292 281 276 258 231 214 211 233 256 270 306 304 306 307 308 307 nan nan nan nan nan 287 293 289 278 276 277 275 273 271 268 266 265 267 267 258
284 285 287 284 284 286 286 285 285 285 280 277 277 277 284 286 288 290 290 290 288 287 288 288 291 294 296 296 296 294 294 294 294 293 298 297 297 297 298 299 297 294 291 292 294 296 295 295 294 289 284 278 265 236 220 228 246 269 277 296 299 295 298 298 290 nan nan 287 281 280 281 281 284 282 278 275 276 276 272 266 267 263 260 257 253
281 283 282 281 282 285 287 283 281 279 273 270 269 270 277 287 289 292 292 292 290 289 287 287 286 289 291 290 287 285 286 285 285 287 294 291 295 298 297 299 293 291 289 291 293 294 293 292 296 295 286 279 270 246 232 242 246 284 297 297 294 294 299 294 290 292 286 287 288 287 290 287 285 288 287 285 280 273 274 nan nan 264 259 258 257
282 279 276 276 277 279 281 277 272 272 271 267 267 269 276 285 286 287 286 289 290 289 286 282 281 277 286 282 280 283 283 282 284 288 287 292 295 298 298 297 294 289 287 289 291 290 291 292 297 297 288 283 270 269 253 250 255 283 301 297 294 298 301 297 297 nan nan nan 306 298 295 294 293 290 286 281 279 277 274 270 269 nan nan nan 256
276 272 270 273 273 273 271 269 268 270 269 267 267 270 276 281 285 285 284 287 288 284 281 283 277 276 273 274 277 279 280 280 280 287 289 298 298 301 299 298 294 290 286 286 287 289 290 294 293 287 279 271 267 262 266 273 274 275 288 294 298 294 298 310 310 nan nan nan nan 303 304 300 294 289 285 284 283 nan nan 275 272 269 268 268 nan
272 266 262 262 268 268 266 265 268 268 267 267 269 274 281 287 286 283 280 280 282 283 285 284 279 275 271 272 276 277 276 278 290 298 296 293 296 299 303 300 295 290 287 281 284 288 290 294 295 278 262 254 260 276 280 278 280 271 270 284 293 292 295 313 320 nan nan 294 nan 305 299 296 296 296 291 286 nan nan nan nan nan nan nan nan nan
257 252 253 263 269 267 265 264 265 265 267 270 276 282 288 288 283 280 279 280 282 281 283 278 270 272 272 274 276 273 274 276 278 281 285 288 286 288 294 290 281 278 280 276 276 277 280 283 277 269 262 258 263 275 285 284 270 262 265 284 293 291 296 310 316 310 nan nan 294 302 302 299 299 298 294 291 287 279 273 nan 274 270 nan nan nan
254 255 261 272 274 266 263 263 266 267 272 277 284 287 290 287 281 278 277 277 281 279 277 272 270 275 274 276 276 275 275 275 278 284 284 284 286 288 290 286 279 280 276 277 277 nan 281 285 nan 271 258 260 272 280 283 290 282 257 268 271 292 298 306 316 312 304 nan 298 300 306 303 295 293 294 295 292 286 280 276 273 nan nan nan nan nan
255 258 270 272 265 256 260 267 273 276 280 283 284 287 287 282 279 277 277 278 274 270 271 270 271 274 275 277 277 276 277 277 280 282 281 283 286 285 282 279 279 279 276 280 274 nan nan nan nan nan 248 253 282 281 290 288 264 229 245 267 291 306 316 319 309 300 302 nan 302 304 299 295 292 292 294 292 288 285 nan nan nan nan nan nan nan
259 265 269 261 256 264 272 277 280 283 284 286 286 287 283 282 283 280 274 269 261 260 268 269 266 268 274 277 274 274 278 278 278 278 280 282 288 283 275 271 271 273 274 274 270 nan nan nan nan nan 248 241 253 276 284 265 252 244 264 281 295 308 319 319 312 297 nan nan 298 303 300 296 294 293 290 289 288 287 284 282 280 276 274 271 269
261 263 257 262 269 269 272 276 279 282 282 286 289 286 282 281 281 275 268 265 262 264 267 269 268 264 268 276 274 271 271 274 274 275 277 285 285 280 272 267 266 nan 268 266 263 259 nan nan nan 246 243 248 283 286 279 274 295 nan 293 301 306 311 310 306 303 291 nan nan 301 308 306 302 301 299 295 292 287 282 279 275 271 268 266 nan nan
265 259 264 263 258 261 272 278 279 280 284 288 288 285 285 284 276 271 264 263 263 265 267 269 266 265 269 276 275 271 271 274 274 276 283 286 283 276 270 268 263 258 260 nan nan nan nan nan nan nan 252 245 258 266 270 283 280 287 296 306 308 310 306 306 303 nan nan 305 306 307 307 304 306 304 297 292 285 275 268 nan nan nan nan nan nan
261 264 258 254 258 271 277 281 280 281 283 288 288 283 274 276 270 266 266 268 267 265 266 264 262 266 274 273 265 263 267 271 276 281 284 282 277 274 273 262 256 260 261 254 255 257 247 234 nan 253 nan nan 248 249 255 268 272 276 292 299 298 294 295 295 297 304 309 306 304 304 305 308 312 311 302 283 276 274 274 273 271 267 nan nan nan
248 241 236 232 243 265 275 278 279 280 282 283 285 277 270 268 263 261 264 266 268 270 269 264 261 266 270 266 254 253 259 266 274 277 281 277 275 274 271 258 247 246 256 258 261 247 244 249 248 245 nan nan 254 249 nan nan nan 273 284 285 286 292 295 297 303 311 310 304 nan nan nan 310 320 314 299 289 280 274 272 271 270 266 262 259 nan
258 255 239 227 229 242 256 269 274 277 279 279 279 272 266 265 263 260 261 265 271 273 273 267 259 263 268 259 249 247 253 267 271 276 274 273 276 273 267 255 239 243 246 244 249 247 231 211 240 229 238 nan nan nan 251 nan nan nan 271 275 282 288 293 298 309 310 307 309 nan nan nan 316 316 305 311 315 296 274 272 274 271 268 261 258 nan
255 260 266 264 258 250 241 243 261 277 278 273 268 263 261 260 258 255 256 263 271 273 272 264 254 253 260 251 250 251 257 265 273 273 269 271 274 270 263 251 240 240 244 244 254 262 247 230 235 233 236 243 nan nan nan nan nan nan 272 280 279 290 295 301 314 311 308 311 nan nan nan nan nan 304 307 309 282 263 251 260 273 266 261 nan nan
289 287 292 289 287 283 278 263 261 266 272 269 262 254 249 251 254 254 258 263 270 272 268 258 249 249 252 248 249 256 260 268 273 271 266 273 274 260 nan 247 242 242 244 244 259 265 266 249 244 242 234 237 nan 232 nan nan nan 277 281 287 286 287 291 303 311 310 309 312 nan nan nan nan 307 296 292 283 277 269 258 255 263 267 263 nan nan
299 299 301 296 297 298 295 282 266 264 260 254 244 244 250 252 256 260 263 268 272 273 264 252 243 241 247 247 249 258 264 270 271 268 267 273 267 248 242 243 242 247 247 247 256 263 265 248 243 250 251 235 234 nan nan nan 271 275 281 283 281 286 293 297 303 304 308 304 292 292 293 308 305 314 311 296 279 255 253 252 230 247 264 269 274
292 293 292 296 299 294 291 283 279 265 265 266 264 254 250 264 268 269 275 279 278 274 260 248 241 243 246 247 252 259 263 264 267 267 267 266 257 nan 237 239 245 251 245 253 256 254 254 252 251 241 nan nan nan nan nan nan 275 272 279 282 276 282 282 288 294 302 309 301 302 294 305 323 325 303 311 306 273 235 239 232 229 206 239 264 274
263 278 294 303 311 310 295 283 277 283 280 277 273 276 274 261 261 266 275 280 274 265 255 251 252 248 246 248 256 260 260 258 262 266 264 258 253 nan 234 239 251 249 242 249 257 251 247 250 257 240 233 258 267 284 285 284 279 273 272 271 268 264 271 279 287 299 307 312 308 305 312 311 309 318 317 301 273 227 204 206 208 200 209 219 243
256 274 289 302 308 298 282 274 280 284 280 276 284 290 273 258 257 262 266 269 259 249 248 254 260 252 243 247 258 258 255 256 261 266 267 261 249 237 234 242 253 250 247 250 249 248 250 237 249 249 229 240 280 284 291 286 279 269 265 264 262 264 263 271 285 300 310 323 324 312 292 292 280 312 318 312 300 236 220 200 206 187 195 209 218
250 267 275 275 274 252 252 273 283 281 279 280 287 281 260 257 264 261 264 261 243 235 243 255 260 252 243 244 247 253 252 257 263 264 267 264 248 231 236 250 256 249 250 253 248 247 256 241 227 254 253 244 244 277 288 284 273 267 264 258 258 270 266 270 280 286 304 311 316 311 309 317 272 295 310 317 315 225 189 204 204 201 201 210 214
266 285 288 295 302 287 296 305 300 292 288 284 280 267 253 260 258 264 271 255 228 225 242 250 256 251 242 240 242 248 253 256 260 267 273 263 242 232 238 247 251 244 242 249 249 250 255 259 246 229 266 261 256 275 285 288 287 274 263 263 257 259 270 268 267 261 256 281 293 283 277 284 302 291 325 309 241 165 153 169 183 196 217 204 207
290 295 295 291 288 294 287 296 305 302 283 276 271 265 250 265 265 266 268 248 226 231 244 247 250 243 233 234 243 246 250 255 256 259 262 252 240 237 242 253 251 243 239 242 nan 245 252 257 256 248 242 275 274 291 298 290 277 291 293 275 259 254 259 262 262 259 260 259 258 271 284 295 309 332 244 265 130 158 153 158 164 180 194 nan nan
295 284 278 280 287 287 287 287 281 277 277 269 267 253 249 246 254 257 270 244 216 217 226 229 231 234 229 229 238 244 249 251 253 254 250 240 241 243 nan 248 247 247 243 236 239 242 253 261 258 266 260 239 255 280 303 nan nan 274 267 266 267 263 259 256 251 244 256 270 260 262 267 281 269 174 196 238 269 168 157 163 174 179 185 185 183
271 271 271 279 286 288 297 307 298 291 305 303 262 252 249 245 243 242 244 238 225 225 228 227 229 233 235 228 226 235 246 251 251 244 232 234 244 240 234 240 243 242 247 243 240 250 256 246 247 263 269 267 261 274 278 260 283 nan nan nan 245 233 258 254 254 nan 244 261 262 259 239 225 251 219 201 222 211 nan 194 197 199 186 188 nan nan
274 272 274 284 289 295 303 309 298 291 314 336 328 304 276 259 248 241 239 234 231 232 233 228 233 238 243 234 224 229 239 244 235 224 214 223 230 233 235 239 240 242 243 237 244 262 264 264 267 265 270 275 277 266 270 258 nan nan nan nan nan nan nan 253 260 nan 241 246 238 260 nan 265 255 219 215 227 199 214 228 228 211 196 199 nan 200
269 267 277 288 295 292 296 304 301 304 319 332 335 333 337 318 276 266 264 249 249 251 253 256 257 265 263 237 232 236 235 225 212 205 201 209 225 234 236 239 243 240 240 240 245 244 249 255 264 266 263 263 277 273 262 252 289 nan nan nan nan nan nan nan nan nan 247 239 235 237 249 251 247 218 211 228 226 222 nan nan 221 214 206 209 209
268 266 274 285 293 302 303 298 297 306 318 319 310 309 321 334 333 322 302 277 268 248 248 260 268 260 251 252 250 238 228 218 205 204 212 219 229 233 237 238 243 240 239 245 246 248 246 248 253 259 266 264 261 269 269 277 258 223 255 nan 254 nan nan nan nan nan 272 252 239 237 232 231 233 233 226 nan nan 230 223 218 221 226 219 nan nan
271 274 277 284 296 305 313 307 294 299 305 307 307 302 303 315 324 331 322 284 266 265 276 276 269 268 263 259 247 236 225 215 215 216 221 229 231 231 234 237 240 241 243 243 244 240 240 240 254 257 260 264 267 267 268 278 287 250 246 nan 252 nan nan nan nan nan nan nan 267 237 231 nan 225 225 230 229 230 nan 228 224 228 nan nan nan nan
277 289 291 294 298 305 310 303 302 301 299 304 307 310 310 315 314 305 303 279 252 254 263 271 280 275 265 249 241 230 225 218 217 220 223 225 229 233 236 237 239 240 238 240 236 239 240 246 250 252 257 256 257 257 266 282 271 264 253 244 260 nan nan nan nan nan nan 280 259 260 256 235 221 213 224 nan nan nan 223 233 238 nan nan nan nan
281 287 291 289 292 298 302 299 300 288 278 291 301 312 309 298 291 281 278 258 243 242 253 269 273 269 259 244 231 229 226 219 212 215 223 233 235 236 241 241 242 242 239 240 238 240 240 246 251 251 250 252 243 256 270 270 265 257 259 267 nan nan nan nan nan nan nan nan 278 282 272 264 246 212 nan nan nan nan 219 nan nan nan nan nan nan
241 255 270 274 286 294 295 293 265 239 233 233 250 275 277 265 253 257 262 255 244 245 249 247 246 244 245 235 228 226 229 223 218 221 239 244 243 246 248 244 244 245 244 245 248 250 249 250 248 244 243 248 248 251 250 255 261 263 258 nan nan nan nan nan nan nan nan nan nan 261 251 nan nan nan nan nan nan nan nan nan nan nan nan nan nan